CW0214 Weather Reports


time (UTC)temp
C
wind
direction
speed
KPH
gust
KPH
rain 1hr
cm
rain 24hr
cm
rain mn
cm
humidity
%
barometer
mb
20180625080902 18 228 0.0 4.8 0.00 0.00 0.00 89 1015.3
20180625080402 18 228 0.0 8.0 0.00 0.00 0.00 89 1015.2
20180625075902 17 228 1.6 8.0 0.00 0.00 0.00 89 1015.1
20180625075402 17 214 1.6 8.0 0.00 0.00 0.00 89 1015.0
20180625074902 17 214 0.0 4.8 0.00 0.00 0.00 89 1015.0
20180625074402 17 214 3.2 9.7 0.00 0.00 0.00 89 1014.9
20180625073901 17 211 1.6 9.7 0.00 0.00 0.00 89 1014.9
20180625073402 17 207 4.8 9.7 0.00 0.00 0.00 89 1014.9
20180625072901 17 201 4.8 9.7 0.00 0.00 0.00 89 1014.9
20180625072402 17 226 3.2 9.7 0.00 0.00 0.00 89 1014.9
20180625071902 17 232 4.8 9.7 0.00 0.00 0.00 89 1014.9
20180625071403 17 232 1.6 9.7 0.00 0.00 0.00 89 1014.9
20180625070901 17 224 3.2 9.7 0.00 0.00 0.00 89 1014.8
20180625070402 17 199 1.6 8.0 0.00 0.00 0.00 90 1014.7
20180625065902 17 247 0.0 9.7 0.00 0.00 0.00 90 1014.6
20180625065402 17 247 1.6 9.7 0.00 0.00 0.00 90 1014.6
20180625064901 17 223 3.2 8.0 0.00 0.00 0.00 90 1014.5
20180625064402 17 219 1.6 9.7 0.00 0.00 0.00 90 1014.6
20180625063902 17 236 1.6 11.3 0.00 0.00 0.00 90 1014.4
20180625063401 17 226 1.6 8.0 0.00 0.00 0.00 90 1014.5
20180625062902 17 237 1.6 8.0 0.00 0.00 0.00 90 1014.3
20180625062401 17 232 1.6 8.0 0.00 0.00 0.00 90 1014.3
20180625061402 17 238 0.0 8.0 0.00 0.00 0.00 90 1014.2
20180625060903 17 236 1.6 8.0 0.00 0.00 0.00 90 1014.2
20180625060402 17 238 0.0 8.0 0.00 0.00 0.00 90 1014.0
20180625055902 17 238 0.0 8.0 0.00 0.00 0.00 90 1014.1
20180625055401 17 239 1.6 8.0 0.00 0.00 0.00 90 1014.1
20180625054902 17 246 3.2 8.0 0.00 0.00 0.00 90 1014.2
20180625054401 17 245 4.8 12.9 0.00 0.00 0.00 90 1014.1
20180625053902 17 220 8.0 12.9 0.00 0.00 0.00 90 1014.1
20180625053402 17 263 3.2 12.9 0.00 0.00 0.00 90 1014.1
20180625052902 17 267 1.6 4.8 0.00 0.00 0.00 90 1013.9
20180625052402 17 254 4.8 12.9 0.00 0.00 0.00 89 1013.8
20180625051901 17 265 3.2 11.3 0.00 0.00 0.00 89 1013.7
20180625051403 17 263 4.8 11.3 0.00 0.00 0.00 89 1013.7
20180625050901 17 261 3.2 11.3 0.00 0.00 0.00 89 1013.7
20180625050402 17 270 0.0 8.0 0.00 0.00 0.00 89 1013.5
20180625045902 17 263 0.0 0.0 0.00 0.00 0.00 89 1013.5
20180625045402 17 263 1.6 4.8 0.00 0.00 0.00 89 1013.5
20180625044901 17 260 1.6 9.7 0.00 0.00 0.00 89 1013.4
20180625044402 17 250 1.6 8.0 0.00 0.00 0.00 89 1013.3
20180625043902 17 259 1.6 11.3 0.00 0.00 0.00 89 1013.2
20180625043402 17 303 0.0 9.7 0.00 0.00 0.00 89 1013.2
20180625042902 17 255 3.2 9.7 0.00 0.00 0.00 89 1013.2
20180625042402 17 232 0.0 4.8 0.00 0.00 0.00 89 1013.2
20180625041902 17 254 3.2 12.9 0.00 0.00 0.00 89 1013.2
20180625041403 17 227 3.2 12.9 0.00 0.00 0.00 89 1013.2
20180625040902 17 232 1.6 12.9 0.00 0.00 0.00 89 1013.2
20180625040402 18 297 4.8 12.9 0.00 0.00 0.00 89 1013.1
20180625035902 18 286 0.0 0.0 0.00 0.00 0.00 89 1013.1
20180625035402 18 311 1.6 12.9 0.00 0.00 0.00 89 1013.0
20180625034902 18 223 1.6 9.7 0.00 0.00 0.00 89 1013.1
20180625034402 18 218 1.6 9.7 0.00 0.00 0.00 89 1013.1
20180625033901 18 257 1.6 9.7 0.00 0.00 0.00 89 1013.0
20180625033402 18 216 0.0 12.9 0.00 0.00 0.00 89 1013.0
20180625032902 18 252 0.0 11.3 0.00 0.00 0.00 89 1012.9
20180625032402 18 256 1.6 9.7 0.00 0.00 0.00 89 1012.9
20180625031902 18 258 1.6 8.0 0.00 0.00 0.00 89 1012.8
20180625031403 18 271 0.0 12.9 0.00 0.00 0.00 89 1012.6
20180625030902 18 280 0.0 12.9 0.00 0.00 0.00 89 1012.5
20180625030402 18 247 1.6 11.3 0.00 0.00 0.00 89 1012.5
20180625025902 18 257 1.6 11.3 0.00 0.00 0.00 89 1012.5
20180625025402 18 247 1.6 11.3 0.00 0.00 0.00 89 1012.4
20180625024902 18 238 4.8 11.3 0.00 0.00 0.00 89 1012.5
20180625024402 18 225 0.0 3.2 0.00 0.00 0.00 89 1012.5
20180625023902 18 226 4.8 9.7 0.00 0.00 0.00 89 1012.5
20180625023402 18 244 0.0 8.0 0.00 0.00 0.00 89 1012.5
20180625022902 18 249 1.6 8.0 0.00 0.00 0.00 89 1012.5
20180625022402 18 245 1.6 9.7 0.00 0.00 0.00 89 1012.7
20180625021902 18 259 1.6 12.9 0.00 0.00 0.00 89 1012.8
20180625021403 18 225 1.6 12.9 0.00 0.00 0.00 89 1012.6
20180625020902 18 299 4.8 9.7 0.00 0.00 0.00 89 1012.6
20180625020402 18 273 0.0 11.3 0.00 0.00 0.00 89 1012.6
20180625015902 18 243 1.6 11.3 0.00 0.00 0.00 89 1012.7
20180625015402 18 235 1.6 8.0 0.00 0.00 0.00 89 1012.7
20180625014902 18 196 0.0 4.8 0.00 0.00 0.00 89 1012.7
20180625014402 18 253 0.0 0.0 0.00 0.00 0.00 89 1012.8
20180625013902 18 254 1.6 9.7 0.00 0.00 0.00 89 1012.8
20180625013402 18 290 0.0 9.7 0.00 0.00 0.00 89 1012.8
20180625012902 18 282 1.6 9.7 0.00 0.00 0.00 89 1012.8
20180625012402 18 304 4.8 8.0 0.00 0.00 0.00 89 1012.8
20180625011902 18 246 0.0 8.0 0.00 0.00 0.00 89 1012.9
20180625011402 18 246 0.0 8.0 0.00 0.00 0.00 89 1012.9
20180625010902 18 281 6.4 14.5 0.00 0.00 0.00 89 1012.8
20180625010402 18 211 1.6 12.9 0.00 0.00 0.00 89 1012.8
20180625005902 18 306 4.8 16.1 0.00 0.00 0.00 89 1012.7
20180625005402 18 258 8.0 12.9 0.00 0.00 0.00 88 1012.7
20180625004902 18 314 4.8 14.5 0.00 0.00 0.00 88 1012.8
20180625004402 18 295 6.4 14.5 0.00 0.00 0.00 88 1012.9
20180625003903 18 266 1.6 9.7 0.00 0.00 0.00 89 1012.9
20180625003402 18 274 1.6 11.3 0.00 0.00 0.00 89 1012.9
20180625002902 18 327 3.2 11.3 0.00 0.00 0.00 88 1012.9
20180625002402 18 272 3.2 9.7 0.00 0.00 0.00 88 1012.9
20180625001902 18 317 3.2 11.3 0.00 0.00 0.00 88 1012.9
20180625001402 18 293 3.2 8.0 0.00 0.00 0.00 88 1012.9
20180625000902 18 284 3.2 16.1 0.00 0.00 0.00 88 1012.9
20180625000402 18 330 3.2 12.9 0.00 0.00 0.00 88 1013.0
20180624235902 18 287 1.6 9.7 0.00 0.00 0.00 88 1013.0
20180624235403 18 276 1.6 9.7 0.00 0.00 0.00 88 1013.0
20180624234902 18 295 6.4 14.5 0.00 0.00 0.00 88 1013.1
20180624234402 18 271 4.8 14.5 0.00 0.00 0.00 88 1013.0
20180624233901 18 260 1.6 12.9 0.00 0.00 0.00 88 1013.1
20180624233402 18 254 3.2 12.9 0.00 0.00 0.00 88 1013.0
20180624232902 18 271 3.2 11.3 0.00 0.00 0.00 88 1013.1
20180624232402 18 291 3.2 11.3 0.00 0.00 0.00 88 1013.1
20180624231902 18 297 3.2 12.9 0.00 0.00 0.00 88 1013.2
20180624231402 18 268 4.8 14.5 0.00 0.00 0.00 87 1013.1
20180624230902 18 276 4.8 12.9 0.00 0.00 0.00 87 1013.0
20180624230402 18 287 4.8 12.9 0.00 0.00 0.00 87 1013.0
20180624225902 18 297 6.4 12.9 0.00 0.00 0.00 87 1013.1
20180624225402 18 259 4.8 16.1 0.00 0.00 0.00 87 1013.1
20180624224902 18 245 1.6 19.3 0.00 0.00 0.00 87 1013.1
20180624224402 18 265 0.0 16.1 0.00 0.00 0.00 87 1013.1
20180624223902 18 288 1.6 12.9 0.00 0.00 0.00 87 1013.1
20180624223402 18 290 8.0 19.3 0.00 0.00 0.00 87 1013.1
20180624222902 18 262 9.7 16.1 0.00 0.00 0.00 86 1013.1
20180624222402 18 287 0.0 11.3 0.00 0.00 0.00 86 1013.1
20180624221902 18 256 6.4 16.1 0.00 0.00 0.00 86 1013.1
20180624221402 18 281 1.6 12.9 0.00 0.00 0.00 86 1013.1
20180624220902 18 257 3.2 12.9 0.00 0.00 0.00 86 1013.1
20180624220402 19 289 4.8 16.1 0.00 0.00 0.00 85 1013.1
20180624215902 19 231 4.8 19.3 0.00 0.00 0.00 85 1013.1
20180624215402 19 312 3.2 16.1 0.00 0.00 0.00 85 1013.1
20180624214902 19 270 1.6 14.5 0.00 0.00 0.00 85 1013.1
20180624214403 19 301 3.2 14.5 0.00 0.00 0.00 84 1013.1
20180624213902 19 246 4.8 14.5 0.00 0.00 0.00 84 1013.0
20180624213402 19 265 1.6 12.9 0.00 0.00 0.00 84 1013.0
20180624212902 19 271 4.8 19.3 0.00 0.00 0.00 83 1013.0
20180624212402 20 271 0.0 3.2 0.00 0.00 0.00 83 1013.0
20180624211902 20 306 4.8 16.1 0.00 0.00 0.00 83 1013.0
20180624211402 20 266 3.2 16.1 0.00 0.00 0.00 82 1012.9
20180624210902 20 269 4.8 11.3 0.00 0.00 0.00 82 1012.9
20180624210402 20 305 3.2 9.7 0.00 0.00 0.00 82 1013.0
20180624205902 20 277 1.6 14.5 0.00 0.00 0.00 82 1013.0
20180624205402 20 260 6.4 14.5 0.00 0.00 0.00 81 1012.9
20180624204902 20 221 1.6 4.8 0.00 0.00 0.00 81 1012.6
20180624204402 20 262 3.2 14.5 0.00 0.00 0.00 81 1012.6
20180624203902 20 291 6.4 19.3 0.00 0.00 0.00 81 1012.5
20180624203403 20 292 6.4 19.3 0.00 0.00 0.00 81 1012.5
20180624202902 20 277 6.4 11.3 0.00 0.00 0.00 80 1012.5
20180624202404 20 269 3.2 16.1 0.00 0.00 0.00 80 1012.5
20180624201902 20 287 4.8 14.5 0.00 0.00 0.00 79 1012.3
20180624201402 20 180 3.2 12.9 0.00 0.00 0.00 79 1012.2
20180624200903 21 29 3.2 12.9 0.00 0.00 0.00 79 1012.2
20180624200402 21 244 8.0 16.1 0.00 0.00 0.00 79 1012.4
20180624195903 21 253 4.8 19.3 0.00 0.00 0.00 78 1012.4
20180624195402 21 285 3.2 20.9 0.00 0.00 0.00 78 1012.3
20180624194902 21 279 9.7 22.5 0.00 0.00 0.00 77 1012.3
20180624194402 21 293 9.7 19.3 0.00 0.00 0.00 76 1012.2
20180624193902 21 214 11.3 22.5 0.00 0.00 0.00 76 1012.2
20180624193402 22 308 8.0 24.1 0.00 0.00 0.00 76 1012.1
20180624192902 22 254 9.7 24.1 0.00 0.00 0.00 75 1012.1
20180624192402 22 274 3.2 16.1 0.00 0.00 0.00 75 1012.0
20180624191902 22 245 9.7 20.9 0.00 0.00 0.00 73 1012.0
20180624191403 23 300 9.7 20.9 0.00 0.00 0.00 72 1011.9
20180624190902 23 302 1.6 19.3 0.00 0.00 0.00 71 1011.9
20180624190402 23 259 4.8 22.5 0.00 0.00 0.00 71 1011.8
20180624185902 23 187 3.2 9.7 0.00 0.00 0.00 70 1011.7
20180624185402 24 204 3.2 16.1 0.00 0.00 0.00 69 1011.7
20180624184902 24 246 3.2 16.1 0.00 0.00 0.00 69 1011.6
20180624184402 24 300 3.2 14.5 0.00 0.00 0.00 69 1011.6
20180624183903 25 211 4.8 19.3 0.00 0.00 0.00 68 1011.6
20180624183402 25 235 9.7 25.7 0.00 0.00 0.00 67 1011.6
20180624182902 25 279 8.0 22.5 0.00 0.00 0.00 66 1011.5
20180624182402 25 273 9.7 24.1 0.00 0.00 0.00 66 1011.5
20180624181902 25 353 4.8 32.2 0.00 0.00 0.00 65 1011.5
20180624181403 26 247 8.0 19.3 0.00 0.00 0.00 64 1011.4
20180624180902 26 265 9.7 25.7 0.00 0.00 0.00 64 1011.4
20180624180402 26 269 11.3 24.1 0.00 0.00 0.00 63 1011.5
20180624175902 26 265 4.8 16.1 0.00 0.00 0.00 63 1011.4
20180624175402 26 302 8.0 20.9 0.00 0.00 0.00 62 1011.5
20180624174902 27 268 8.0 19.3 0.00 0.00 0.00 62 1011.4
20180624174402 27 266 8.0 22.5 0.00 0.00 0.00 62 1011.2
20180624173902 27 154 6.4 19.3 0.00 0.00 0.00 61 1011.2
20180624173403 27 249 11.3 20.9 0.00 0.00 0.00 61 1011.2
20180624172403 27 282 8.0 16.1 0.00 0.00 0.00 60 1011.0
20180624171902 28 317 9.7 19.3 0.00 0.00 0.00 59 1011.1
20180624171402 28 262 9.7 19.3 0.00 0.00 0.00 59 1011.1
20180624170902 28 200 3.2 19.3 0.00 0.00 0.00 58 1011.1
20180624170403 28 258 8.0 19.3 0.00 0.00 0.00 58 1011.1
20180624165902 28 281 6.4 24.1 0.00 0.00 0.00 57 1011.1
20180624165402 29 264 9.7 25.7 0.00 0.00 0.00 57 1011.0
20180624164902 29 258 9.7 20.9 0.00 0.00 0.00 57 1011.0
20180624164402 29 281 11.3 22.5 0.00 0.00 0.00 56 1011.1
20180624163902 30 267 9.7 19.3 0.00 0.00 0.00 56 1011.0
20180624163402 30 264 8.0 19.3 0.00 0.00 0.00 55 1011.1
20180624162902 30 238 4.8 16.1 0.00 0.00 0.00 55 1011.2
20180624162403 30 274 9.7 22.5 0.00 0.00 0.00 54 1011.1
20180624161902 30 278 9.7 22.5 0.00 0.00 0.00 53 1011.1
20180624161402 31 288 8.0 22.5 0.00 0.00 0.00 52 1011.1
20180624160903 31 276 12.9 32.2 0.00 0.00 0.00 50 1011.2
20180624160403 31 254 3.2 16.1 0.00 0.00 0.00 46 1011.2
20180624155903 31 241 11.3 20.9 0.00 0.00 0.00 46 1011.2
20180624155402 31 207 9.7 19.3 0.00 0.00 0.00 46 1011.3
20180624154902 31 203 9.7 19.3 0.00 0.00 0.00 47 1011.2
20180624154403 31 317 4.8 16.1 0.00 0.00 0.00 46 1011.3
20180624153902 31 268 9.7 19.3 0.00 0.00 0.00 47 1011.3
20180624153402 31 266 9.7 16.1 0.00 0.00 0.00 46 1011.3
20180624152902 31 273 11.3 20.9 0.00 0.00 0.00 47 1011.3
20180624152402 31 270 4.8 22.5 0.00 0.00 0.00 47 1011.4
20180624151902 31 273 9.7 19.3 0.00 0.00 0.00 47 1011.3
20180624151403 31 236 9.7 24.1 0.00 0.00 0.00 47 1011.4
20180624150903 31 296 9.7 19.3 0.00 0.00 0.00 47 1011.4
20180624150403 31 296 8.0 22.5 0.00 0.00 0.00 47 1011.4
20180624145902 31 288 4.8 25.7 0.00 0.00 0.00 46 1011.3
20180624145402 31 234 11.3 19.3 0.00 0.00 0.00 47 1011.4
20180624144902 32 268 11.3 20.9 0.00 0.00 0.00 46 1011.4
20180624144402 31 232 9.7 16.1 0.00 0.00 0.00 47 1011.4
20180624143902 31 315 6.4 20.9 0.00 0.00 0.00 46 1011.5
20180624143402 31 220 12.9 19.3 0.00 0.00 0.00 46 1011.4
20180624142902 31 226 8.0 19.3 0.00 0.00 0.00 47 1011.5
20180624142402 31 244 8.0 22.5 0.00 0.00 0.00 46 1011.6
20180624141902 32 269 11.3 20.9 0.00 0.00 0.00 46 1011.6
20180624141402 32 221 8.0 19.3 0.00 0.00 0.00 46 1011.6
20180624140903 31 263 8.0 14.5 0.00 0.00 0.00 45 1011.7
20180624140403 31 236 9.7 20.9 0.00 0.00 0.00 46 1011.7
20180624135903 31 224 3.2 11.3 0.00 0.00 0.00 46 1011.8
20180624135402 31 255 4.8 19.3 0.00 0.00 0.00 46 1011.8
20180624134902 31 282 8.0 19.3 0.00 0.00 0.00 45 1011.9
20180624134402 31 276 8.0 19.3 0.00 0.00 0.00 47 1011.9
20180624133902 31 274 4.8 16.1 0.00 0.00 0.00 47 1011.9
20180624133402 31 293 8.0 16.1 0.00 0.00 0.00 47 1011.9
20180624132902 32 309 4.8 16.1 0.00 0.00 0.00 46 1012.0
20180624132402 32 287 9.7 19.3 0.00 0.00 0.00 44 1012.0
20180624131903 32 229 3.2 14.5 0.00 0.00 0.00 44 1012.1
20180624131403 32 246 3.2 14.5 0.00 0.00 0.00 44 1012.2
20180624130902 32 295 8.0 19.3 0.00 0.00 0.00 43 1012.3
20180624130402 32 250 1.6 11.3 0.00 0.00 0.00 46 1012.3
20180624125902 32 252 8.0 14.5 0.00 0.00 0.00 45 1012.3
20180624125402 32 273 9.7 16.1 0.00 0.00 0.00 45 1012.3
20180624124903 32 263 4.8 11.3 0.00 0.00 0.00 46 1012.3
20180624124402 32 241 9.7 16.1 0.00 0.00 0.00 46 1012.3
20180624123903 32 259 0.0 14.5 0.00 0.00 0.00 47 1012.4
20180624123403 31 244 3.2 11.3 0.00 0.00 0.00 47 1012.4
20180624122902 31 154 4.8 11.3 0.00 0.00 0.00 47 1012.4
20180624122402 31 229 8.0 16.1 0.00 0.00 0.00 49 1012.4
20180624121903 31 231 1.6 9.7 0.00 0.00 0.00 50 1012.5
20180624121403 30 130 1.6 14.5 0.00 0.00 0.00 50 1012.5
20180624120902 30 269 11.3 16.1 0.00 0.00 0.00 52 1012.6
20180624120403 30 290 1.6 12.9 0.00 0.00 0.00 54 1012.8
20180624115902 29 321 8.0 16.1 0.00 0.00 0.00 55 1012.8
20180624115403 29 306 1.6 16.1 0.00 0.00 0.00 55 1012.9
20180624114902 30 274 8.0 14.5 0.00 0.00 0.00 53 1012.9
20180624114403 30 306 8.0 16.1 0.00 0.00 0.00 53 1012.9
20180624113902 30 260 6.4 14.5 0.00 0.00 0.00 53 1012.9
20180624113402 30 292 1.6 8.0 0.00 0.00 0.00 53 1012.9
20180624112903 30 252 8.0 16.1 0.00 0.00 0.00 53 1012.9
20180624112402 30 295 4.8 11.3 0.00 0.00 0.00 53 1013.0
20180624111904 29 184 3.2 9.7 0.00 0.00 0.00 54 1013.0
20180624111403 30 294 4.8 9.7 0.00 0.00 0.00 53 1013.1
20180624110902 30 223 3.2 8.0 0.00 0.00 0.00 54 1013.0
20180624110402 30 337 8.0 9.7 0.00 0.00 0.00 53 1013.1
20180624105902 30 171 4.8 9.7 0.00 0.00 0.00 53 1013.2
20180624105402 30 238 8.0 12.9 0.00 0.00 0.00 53 1013.3
20180624104902 29 180 1.6 9.7 0.00 0.00 0.00 54 1013.3
20180624104402 28 230 0.0 4.8 0.00 0.00 0.00 55 1013.4
20180624103902 28 249 4.8 11.3 0.00 0.00 0.00 55 1013.4
20180624103402 28 273 4.8 11.3 0.00 0.00 0.00 55 1013.4
20180624102902 28 278 3.2 11.3 0.00 0.00 0.00 56 1013.4
20180624102402 28 250 1.6 8.0 0.00 0.00 0.00 55 1013.4
20180624101902 28 282 3.2 9.7 0.00 0.00 0.00 56 1013.4
20180624101403 28 252 1.6 9.7 0.00 0.00 0.00 56 1013.4
20180624100902 28 209 0.0 9.7 0.00 0.00 0.00 57 1013.4
20180624100402 27 213 3.2 8.0 0.00 0.00 0.00 57 1013.4
20180624095903 27 180 3.2 8.0 0.00 0.00 0.00 57 1013.4
20180624095403 27 254 1.6 9.7 0.00 0.00 0.00 59 1013.4
20180624094903 27 219 1.6 8.0 0.00 0.00 0.00 59 1013.4
20180624094402 27 210 4.8 11.3 0.00 0.00 0.00 59 1013.4
20180624093903 26 193 4.8 8.0 0.00 0.00 0.00 60 1013.4
20180624093402 26 242 3.2 11.3 0.00 0.00 0.00 61 1013.4
20180624092902 26 220 3.2 4.8 0.00 0.00 0.00 61 1013.5
20180624092403 25 248 3.2 12.9 0.00 0.00 0.00 63 1013.5
20180624091404 25 190 3.2 9.7 0.00 0.00 0.00 65 1013.5
20180624090903 25 225 1.6 8.0 0.00 0.00 0.00 65 1013.5
20180624090403 25 202 6.4 9.7 0.00 0.00 0.00 66 1013.4
20180624085904 25 296 3.2 9.7 0.00 0.00 0.00 65 1013.4
20180624085402 25 244 0.0 1.6 0.00 0.00 0.00 67 1013.4
20180624084902 24 244 0.0 3.2 0.00 0.00 0.00 68 1013.4
20180624084403 24 242 1.6 4.8 0.00 0.00 0.00 69 1013.4
20180624083903 23 244 3.2 9.7 0.00 0.00 0.00 70 1013.5
20180624083402 23 254 4.8 9.7 0.00 0.00 0.00 70 1013.5
20180624082902 23 277 4.8 8.0 0.00 0.00 0.00 70 1013.6
20180624082403 23 277 6.4 11.3 0.00 0.00 0.00 71 1013.5
20180624081903 23 240 8.0 11.3 0.00 0.00 0.00 71 1013.6
20180624081403 22 238 3.2 9.7 0.00 0.00 0.00 71 1013.5